SCP
0 0 0 0 0 0 0 0 0 0 0 0 0 0 0 0 0 0 0 0 0 0 0 0 0 0 0 0 0 0 0 0 0 0 0 0 0 0 0 0 0 0 0 0 0 0 0 0 0
0 0 0 0 0 0 0 0 0 0 0 0 0 0 0 0 0 0 0 0 0 0 0 0 0 0 0 0 0 0 0 0 0 0 0 0 0 0 0 0 0 0 0 0 0 0 0 0 0
0 0 0 0 0 0 0 0 0 0 0 0 0 0 0 0 0 0 0 0 0 0 0 0 0 0 0 0 0 0 0 0 0 0 0 0 0 0 0 0 0 0 0 0 0 0 0 0 0
0 0 0 0 0 0 0 0 0 0 0 0 0 0 0 0 0 0 0 0 0 0 0 0 0 0 0 0 0 0 0 0 0 0 0 0 0 0 0 0 0 0 0 0 0 0 0 0 0
0 0 0 0 0 0 0 0 0 0 0 0 0 0 0 0 0 0 0 0 0 0 0 0 0 0 0 0 0 0 0 0 0 0 0 0 0 0 0 0 0 0 0 0 0 0 0 0 0
0 0 0 0 0 0 0 0 0 0 0 0 0 0 0 0 0 0 0 0 0 0 0 0 0 0 0 0 0 0 0 0 0 0 0 0 0 0 0 0 0 0 0 0 0 0 0 0 0
0 0 0 0 0 0 0 0 0 0 0 0 0 0 0 0 0 0 0 0 0 0 0 0 0 0 0 0 0 0 0 0 0 0 0 0 0 0 0 0 0 0 0 0 0 0 0 0 0
0 0 0 0 0 0 0 0 0 0 0 0 0 0 0 0 0 0 0 0 0 0 0 0 0 0 0 0 0 0 0 0 0 0 0 0 0 0 0 0 0 0 0 0 0 0 0 0 0
0 0 0 0 0 0 0 0 0 0 0 0 0 0 0 0 0 0 0 0 0 0 0 0 0 0 0 0 0 0 0 0 0 0 0 0 0 0 0 0 0 0 0 0 0 0 0 0 0
0 0 0 0 0 0 0 0 0 0 0 0 0 0 0 0 0 0 0 0 0 0 0 0 0 0 0 0 0 0 0 0 0 0 0 0 0 0 0 0 0 0 0 0 0 0 0 0 0
0 0 0 0 0 0 0 0 0 0 0 0 0 0 0 0 0 0 0 0 0 0 0 0 0 0 0 0 0 0 0 0 0 0 0 0 0 0 0 0 0 0 0 0 0 0 0 0 0
0 0 0 0 0 0 0 0 0 0 0 0 0 0 0 0 0 0 0 0 0 0 0 0 0 0 0 0 0 0 0 0 0 0 0 0 0 0 0 0 0 0 0 0 0 0 0 0 0
0 0 0 0 0 0 0 0 0 0 0 0 0 0 0 0 0 0 0 0 0 0 0 0 0 0 0 0 0 0 0 0 0 0 0 0 0 0 0 0 0 0 0 0 0 0 0 0 0
0 0 0 0 0 0 0 0 0 0 0 0 0 0 0 0 0 0 0 0 0 0 0 0 0 0 0 0 0 0 0 0 0 0 0 0 0 0 0 0 0 0 0 0 0 0 0 0 0
0 0 0 0 0 0 0 0 0 0 0 0 0 0 0 0 0 0 0 0 0 0 0 0 0 0 0 0 0 0 0 0 0 0 0 0 0 0 0 0 0 0 0 0 0 0 0 0 0
0 0 0 0 0 0 0 0 0 0 0 0 0 0 0 0 0 0 0 0 0 0 0 0 0 0 0 0 0 0 0 0 0 0 0 0 0 0 0 0 0 0 0 0 0 0 0 0 0
0 0 0 0 0 0 0 0 0 0 0 0 0 0 0 0 0 0 0 0 0 0 0 0 0 0 0 0 0 0 0 0 0 0 0 0 0 0 0 0 0 0 0 0 0 0 0 0 0
0 0 0 0 0 0 0 0 0 0 0 0 0 0 0 1 1 0 0 0 0 0 0 0 0 0 0 0 0 0 0 0 0 0 0 0 0 0 0 0 0 0 0 0 0 0 0 0 0
0 0 0 0 0 0 0 0 0 0 0 0 0 0 0 1 1 0 0 0 0 0 0 0 0 0 0 0 0 0 0 0 0 0 0 0 0 0 0 0 0 0 0 0 0 0 0 0 0
0 0 0 0 0 0 0 0 0 0 0 0 0 0 0 0 1 1 1 0 0 0 0 0 0 0 0 0 0 0 0 0 0 0 0 0 0 0 0 0 0 0 0 0 0 0 0 0 0
0 0 0 0 0 0 0 0 0 0 0 0 0 0 0 1 1 1 1 1 1 1 1 0 0 0 0 0 0 0 0 0 0 0 0 0 0 0 0 0 0 0 0 0 0 0 0 0 0
0 0 0 0 0 0 0 0 0 0 0 0 0 0 0 1 1 1 1 1 1 1 1 1 1 1 1 1 1 0 0 0 0 0 0 0 0 0 0 0 0 0 0 0 0 0 0 0 0
0 0 0 0 0 0 0 0 0 0 0 0 0 0 0 1 1 1 1 1 1 1 1 1 1 1 1 1 1 1 0 0 0 0 0 0 0 0 0 0 0 0 0 0 0 0 0 0 0
0 0 0 0 0 0 0 0 0 0 0 0 0 0 1 1 1 1 1 1 1 1 1 1 1 1 1 1 1 0 0 0 0 0 0 0 0 0 0 0 0 0 0 0 0 0 0 0 0
0 0 0 0 0 0 0 0 0 0 0 0 0 0 1 1 1 1 1 1 1 1 1 1 1 1 1 1 0 0 0 0 0 0 0 0 0 0 0 0 0 0 0 0 0 0 0 0 0
0 0 0 0 0 0 0 0 0 0 0 0 0 0 1 1 1 1 1 1 1 1 1 1 1 1 1 1 0 0 0 0 0 0 0 0 0 0 0 0 0 0 0 0 0 0 0 0 0
0 0 0 0 0 0 0 0 0 0 0 0 0 0 1 1 1 1 1 1 1 1 1 1 1 1 1 1 0 0 0 0 0 0 0 0 0 0 0 0 0 0 0 0 0 0 0 0 0
0 0 0 0 0 0 0 0 0 0 0 0 0 0 1 1 1 1 1 1 1 1 1 1 1 1 1 1 0 0 0 0 0 0 0 0 0 0 0 0 0 0 0 0 0 0 0 0 0
0 0 0 0 0 0 0 0 0 0 0 0 0 1 1 1 1 1 1 1 1 1 1 1 1 1 1 1 1 0 0 0 0 0 0 0 0 0 0 0 0 0 0 0 0 0 0 0 0
0 0 0 0 0 0 0 0 0 0 0 0 1 1 1 1 1 1 1 1 1 1 1 1 1 1 1 1 1 0 0 0 0 0 0 0 0 0 0 0 0 0 0 0 0 0 0 0 0
Wind_Speed
9 7 3 1 1 3 2 1 4 6 6 6 9 9 8 6 4 5 4 9 10 9 6 9 10 10 10 11 10 10 10 10 11 11 12 12 12 12 12 11 11 11 11 11 10 10 10 9 9
6 5 2 0 3 3 2 3 7 8 8 9 10 10 8 7 7 9 6 9 11 9 6 8 11 10 10 10 10 10 10 10 10 11 11 12 12 11 11 11 10 10 10 10 10 9 9 9 8
6 4 1 1 2 3 2 3 8 8 8 7 6 7 6 6 8 6 7 11 9 8 6 8 13 11 11 10 10 10 10 10 10 10 10 11 10 10 10 10 10 9 9 9 9 9 8 8 7
2 1 1 2 2 2 4 4 7 9 7 8 8 7 6 5 6 9 12 11 10 8 7 9 13 12 11 10 10 9 9 9 10 10 10 10 9 9 9 9 9 9 9 8 8 8 7 7 7
1 1 2 2 1 1 3 5 7 7 5 8 10 8 6 4 12 14 12 11 11 8 6 8 12 11 11 10 10 10 9 9 9 9 9 9 8 8 8 8 8 8 8 8 7 7 7 6 6
1 2 3 1 2 2 3 6 9 11 10 10 10 8 4 6 11 12 12 10 9 9 7 7 11 11 11 11 10 10 9 9 8 8 8 8 8 8 7 7 8 8 7 7 7 6 6 6 6
1 2 1 2 2 3 4 5 8 9 9 7 8 7 5 6 8 11 10 10 8 8 7 5 5 7 10 11 10 9 9 8 8 7 7 7 7 7 7 7 7 7 7 6 7 6 6 6 6
3 2 0 1 2 2 3 5 6 9 8 9 7 8 7 8 9 11 10 9 8 6 5 4 4 3 4 5 9 9 8 8 7 6 6 6 6 6 6 5 6 7 7 6 6 6 6 6 6
2 3 1 2 3 2 4 7 4 6 10 6 5 7 11 13 13 12 9 7 7 6 4 4 4 3 3 3 6 7 7 7 6 4 6 5 2 2 3 4 5 6 6 7 6 6 6 5 5
4 3 5 4 4 5 5 7 5 7 10 8 10 10 13 13 12 12 11 9 8 7 5 4 4 4 4 4 3 2 3 3 2 2 2 2 1 1 2 3 4 5 6 6 6 6 5 4 2
4 5 4 3 5 7 5 4 4 9 7 10 15 14 13 12 10 10 9 9 8 8 7 6 5 5 4 2 3 2 1 2 2 2 2 1 1 1 0 0 1 2 3 2 3 3 2 2 1
2 4 4 3 4 7 6 4 5 5 8 12 15 15 13 12 11 10 9 8 7 7 7 6 6 5 4 3 3 3 2 2 2 2 2 2 1 1 1 0 1 1 1 1 1 1 2 2 2
0 2 1 1 3 7 8 7 6 5 10 13 14 13 12 12 10 9 9 8 8 7 6 6 6 5 4 3 2 3 3 3 3 2 2 3 2 2 2 1 1 1 1 1 1 1 1 2 2
2 2 3 0 3 6 10 6 6 7 11 13 13 11 11 11 11 9 9 8 8 8 7 6 6 6 5 3 2 3 3 3 2 2 3 3 2 2 2 1 1 0 1 1 1 0 1 1 0
1 3 5 1 3 3 8 4 4 8 11 12 12 11 11 9 10 10 10 9 8 8 7 6 6 6 5 4 3 3 3 3 3 2 3 3 3 2 2 1 1 0 0 0 0 0 1 0 0
3 3 2 4 1 3 7 4 5 8 10 11 10 10 8 7 8 9 10 8 8 7 7 6 6 5 5 4 3 2 2 3 2 2 2 3 3 3 2 1 0 0 1 1 0 1 0 0 0
3 0 2 4 2 3 5 5 6 7 9 9 9 9 9 8 7 8 10 9 9 8 7 6 5 5 4 3 2 2 2 2 2 2 2 2 2 2 2 1 1 1 1 1 0 0 0 1 1
4 2 3 4 3 3 4 4 6 8 10 9 9 8 9 9 9 9 10 10 9 8 7 6 5 5 4 3 2 2 2 1 1 2 2 2 2 3 2 1 1 1 1 0 0 0 0 1 1
3 2 4 6 4 2 4 4 6 7 7 8 8 8 9 9 8 8 9 9 9 8 7 6 6 5 4 3 3 2 2 1 1 1 2 3 2 2 2 1 1 1 1 0 1 0 1 1 1
2 2 4 5 2 3 3 3 4 6 9 10 11 10 9 8 7 7 7 8 9 9 8 7 6 5 5 3 3 2 2 2 2 1 1 2 3 2 2 2 1 0 1 1 1 1 1 1 1
3 4 5 5 2 2 3 2 2 3 4 5 7 8 8 10 10 9 9 8 9 9 9 8 7 6 5 4 2 2 2 2 1 1 0 1 2 2 2 2 1 0 1 0 1 0 1 0 1
4 5 4 3 1 2 2 2 5 4 4 6 7 9 9 9 9 9 9 9 9 9 8 7 6 5 4 4 4 4 3 2 2 2 1 1 1 2 2 1 1 1 1 1 1 0 0 1 0
6 4 2 2 2 1 2 2 6 2 4 8 9 10 10 10 11 11 10 10 10 9 8 7 6 5 4 4 4 4 3 2 1 1 1 1 0 1 1 1 1 1 1 1 1 1 1 1 1
3 2 3 4 4 1 4 2 5 4 8 8 9 9 9 9 9 9 8 8 8 7 7 7 7 5 5 5 4 4 4 3 3 2 1 1 0 1 1 1 1 1 1 1 1 1 1 1 1
2 5 4 5 4 5 3 1 7 7 7 9 10 11 9 9 9 9 10 10 10 10 8 8 8 6 5 5 4 4 4 4 4 3 2 2 1 1 1 1 1 1 1 1 1 0 1 1 1
3 8 7 4 4 4 3 2 6 4 3 4 7 8 8 8 8 9 10 11 10 10 9 8 8 7 6 5 4 4 4 3 2 3 2 2 2 2 2 1 1 1 0 0 0 0 1 1 1
2 2 7 7 1 0 3 3 5 2 1 2 3 6 7 7 8 8 10 10 9 9 8 8 8 7 6 5 4 3 3 3 3 2 2 2 2 2 1 1 1 1 1 1 1 1 1 1 1
5 6 6 5 3 2 3 3 4 4 3 2 3 5 7 7 7 7 7 8 8 8 7 6 6 7 6 6 5 4 3 3 3 2 2 2 2 1 1 1 1 1 1 1 1 1 1 1 1
1 3 5 5 5 5 3 6 7 8 6 5 5 7 8 10 9 8 7 7 7 7 7 7 6 6 5 5 4 3 3 3 3 2 2 2 1 2 2 2 2 2 1 1 1 1 1 1 2
4 4 6 4 4 4 4 7 6 6 5 5 5 6 7 8 8 8 7 6 6 6 6 6 5 6 6 5 4 4 3 3 3 2 2 2 2 2 2 2 2 2 2 1 1 2 1 1 2
Wind_Direction
167 162 166 192 52 51 58 87 101 82 64 63 74 81 83 69 95 129 146 141 138 144 149 141 135 131 126 123 122 119 116 117 120 122 123 124 125 127 128 129 134 136 136 138 141 138 139 138 136
162 168 187 44 73 64 37 94 88 90 116 110 86 82 76 70 87 113 128 145 141 145 147 143 140 134 129 125 124 122 121 120 123 124 125 127 128 131 132 133 135 139 141 143 144 144 144 143 142
177 189 187 57 99 133 134 110 107 102 111 100 88 70 71 98 110 123 146 144 139 143 146 149 141 138 133 130 129 129 127 125 126 128 128 128 131 135 138 140 142 145 147 148 150 150 149 150 150
171 159 19 65 108 166 162 146 115 106 86 78 91 71 63 97 118 133 139 137 134 139 144 148 140 140 138 136 133 132 132 130 131 133 134 134 138 140 144 147 149 151 152 153 154 156 156 161 166
146 87 38 35 86 119 140 136 119 104 93 91 93 91 70 67 116 130 135 136 134 136 141 146 140 141 142 140 137 137 135 135 137 140 142 143 145 144 146 151 153 155 158 161 163 167 171 174 177
90 72 64 61 75 101 121 117 103 99 107 108 101 99 90 120 125 134 135 136 135 138 139 143 145 143 144 142 141 142 139 139 139 144 148 149 149 151 156 159 163 167 169 172 176 181 184 188 188
133 98 146 127 92 104 124 119 118 124 125 124 123 102 119 140 139 135 132 131 133 136 137 137 146 147 146 145 144 143 143 144 143 145 152 156 158 161 166 171 173 176 179 182 187 191 198 202 202
174 115 36 104 120 120 128 104 123 129 117 125 122 124 152 163 140 128 123 121 125 130 135 137 139 139 142 149 148 148 147 148 147 149 153 160 164 165 167 172 180 186 187 194 202 204 211 215 215
151 84 192 185 153 143 121 107 99 96 112 114 107 126 146 145 134 127 122 119 125 131 136 138 135 139 146 151 162 156 154 155 156 158 155 153 153 164 169 181 186 192 196 203 217 222 230 233 229
143 158 204 193 159 148 130 125 124 99 101 99 101 113 132 138 137 138 141 145 149 152 155 151 149 149 150 163 153 149 148 148 152 148 143 135 142 160 171 190 198 207 214 218 225 235 246 250 239
170 189 194 174 159 138 130 120 106 121 122 142 141 143 143 142 143 145 151 156 161 162 160 160 162 155 155 158 143 144 137 142 155 156 148 139 139 142 164 89 229 233 231 236 234 246 254 236 216
194 223 203 187 158 139 140 125 108 128 155 154 147 148 148 150 153 154 155 157 157 156 162 162 161 157 163 159 154 149 144 150 153 169 160 145 134 118 120 135 219 230 232 226 245 248 250 248 226
267 283 293 196 121 129 116 116 123 128 137 140 141 146 152 155 159 160 156 153 153 153 159 162 155 160 163 153 155 147 155 161 164 162 162 151 145 145 160 171 189 225 226 217 228 246 278 295 266
257 304 327 73 115 123 120 121 109 140 138 142 148 155 159 162 161 157 155 154 158 159 163 163 157 160 154 152 149 150 158 163 156 161 160 152 147 151 156 164 160 201 221 209 196 218 259 298 312
330 354 341 25 108 121 109 88 136 150 142 150 157 162 164 168 160 160 162 161 164 165 164 164 161 160 156 153 159 148 155 153 151 159 151 149 152 153 146 128 114 168 161 108 81 33 70 66 59
13 39 343 292 122 139 110 162 186 158 150 155 161 160 165 170 162 161 159 158 161 159 161 169 161 158 161 157 158 141 145 146 152 152 146 157 156 139 130 123 108 93 86 82 99 73 10 343 323
9 5 277 289 218 157 133 177 196 171 157 163 162 163 164 162 161 166 164 162 160 159 160 162 150 153 160 156 144 130 133 144 152 144 144 151 135 118 124 127 119 90 76 51 316 132 211 269 277
266 250 270 271 252 133 134 175 183 177 166 171 167 158 158 166 174 172 171 168 161 157 158 158 151 152 148 136 115 102 105 120 129 137 142 141 129 117 105 112 89 84 73 28 307 275 328 253 270
240 268 267 269 248 131 156 176 190 186 171 171 170 167 169 177 176 169 170 168 159 157 156 159 152 157 150 141 138 135 142 153 148 154 154 142 136 124 110 108 104 90 106 231 278 316 0 324 2
262 272 274 286 241 142 168 190 203 194 189 185 178 179 178 175 167 170 171 168 167 165 164 162 163 165 165 165 164 156 147 156 155 146 130 132 130 138 130 119 134 97 53 1 359 27 16 323 33
251 218 234 247 311 73 111 5 256 235 199 187 180 180 184 177 175 176 176 176 168 168 172 170 169 165 165 154 129 111 91 79 83 110 161 166 147 137 127 133 116 95 117 214 317 11 108 351 349
254 245 226 230 122 266 149 200 262 220 206 193 188 181 183 183 176 175 178 176 174 175 170 162 158 155 153 142 140 144 148 162 185 186 187 164 151 144 140 116 132 161 163 192 273 252 195 128 319
226 250 245 232 154 12 340 140 268 183 205 211 197 191 190 186 179 177 177 175 172 168 162 155 149 147 141 142 149 147 150 164 155 152 144 144 157 185 162 134 154 180 195 203 207 206 199 176 181
198 36 1 28 71 347 262 161 265 215 206 203 198 193 190 182 177 174 167 156 161 164 159 154 152 155 151 150 152 154 157 155 147 158 162 171 240 250 210 165 162 186 200 208 211 210 191 196 178
74 85 26 359 11 263 276 165 246 238 209 193 191 193 183 175 171 169 159 160 165 168 167 163 158 160 163 162 166 167 165 158 165 174 175 174 200 226 239 207 185 202 210 195 198 185 224 220 203
209 139 155 194 228 277 325 250 267 267 221 189 182 175 164 159 164 168 169 169 169 166 165 166 168 169 171 169 174 175 167 167 175 177 172 180 197 211 215 199 195 220 215 188 159 180 236 211 220
165 166 165 140 156 12 292 295 317 350 66 164 165 146 159 162 157 168 174 170 166 166 169 169 170 172 172 170 166 163 164 161 166 169 171 180 200 201 193 194 197 206 200 193 165 202 250 244 235
153 154 91 102 147 250 288 273 247 261 228 193 158 153 157 157 156 162 162 160 163 161 158 164 171 175 172 169 173 169 177 173 166 162 177 188 202 206 194 209 204 211 235 239 208 251 268 253 263
13 78 109 120 152 159 231 267 230 208 205 187 182 170 162 157 159 159 155 155 157 158 158 165 167 165 165 171 178 175 179 174 158 163 186 197 209 205 199 202 195 204 224 236 238 266 275 268 281
155 163 140 147 219 170 169 259 268 197 184 169 174 166 152 151 152 152 145 147 150 154 156 157 161 162 167 171 176 182 178 171 172 185 200 198 210 214 206 202 202 216 228 234 238 266 279 253 269